Location: Feydey
(46.3431°N, 7.0106°E)
Time: 23:46:28
(UTC+00:00)

Cosmos 1825 - Pass Details

Date: 20 June 2021
Orbit: 500 x 507 km, 82.5° (Epoch: 23 July)

Event Time Altitude Azimuth Distance (km) Brightness Sun altitude
Exits shadow 23:54:12 32° 113° (ESE) 885 3.2 -20.1°
Maximum altitude 23:54:47 34° 92° (E) 848 3.2 -20.1°
Drops below altitude 10° 23:58:14 10° 26° (NNE) 1,728 5.9 -20.0°
Sets 00:00:28 0° 18° (NNE) 2,617 7.3 -20.0°
